Time,TemperatureF,DewpointF,PressureIn,WindDirection,WindDirectionDegrees,WindSpeedMPH,WindSpeedGustMPH,Humidity,HourlyPrecipIn,Conditions,Clouds,dailyrainin,SoftwareType,DateUTC
2013-02-22 00:02:00,37.0,35.0,30.30,SE,129,0.0,1.0,93,0.25,,,0.48,,2013-02-22 05:02:00,
2013-02-22 00:12:00,37.0,35.0,30.30,SE,129,0.0,1.0,93,0.25,,,0.48,,2013-02-22 05:12:00,
2013-02-22 00:22:00,37.0,35.0,30.30,SE,129,0.0,2.0,94,0.21,,,0.52,,2013-02-22 05:22:00,
2013-02-22 00:32:00,37.0,35.0,30.32,ESE,110,0.0,4.0,94,0.19,,,0.55,,2013-02-22 05:32:00,
2013-02-22 00:42:00,37.0,35.0,30.32,ESE,110,0.0,4.0,94,0.19,,,0.55,,2013-02-22 05:42:00,
2013-02-22 00:52:00,37.0,36.0,30.32,ESE,110,0.0,1.0,95,0.14,,,0.57,,2013-02-22 05:52:00,
2013-02-22 01:02:00,37.0,36.0,30.31,ESE,110,0.0,1.0,95,0.13,,,0.61,,2013-02-22 06:02:00,
2013-02-22 01:12:00,37.0,36.0,30.31,ESE,110,0.0,1.0,95,0.13,,,0.61,,2013-02-22 06:12:00,
2013-02-22 01:22:00,37.0,36.0,30.32,ESE,110,0.0,1.0,95,0.13,,,0.65,,2013-02-22 06:22:00,
2013-02-22 01:32:00,37.0,36.0,30.31,ESE,110,0.0,0.0,95,0.13,,,0.68,,2013-02-22 06:32:00,
2013-02-22 01:42:00,37.0,36.0,30.31,ESE,110,0.0,0.0,95,0.13,,,0.68,,2013-02-22 06:42:00,
2013-02-22 01:51:00,36.0,35.0,30.28,ESE,110,0.0,1.0,95,0.13,,,0.71,,2013-02-22 06:51:00,
2013-02-22 02:01:00,36.0,35.0,30.28,WSW,245,0.0,2.0,95,0.12,,,0.73,,2013-02-22 07:01:00,
2013-02-22 02:11:00,36.0,35.0,30.28,WSW,245,0.0,2.0,95,0.12,,,0.73,,2013-02-22 07:11:00,
2013-02-22 02:22:00,36.0,35.0,30.26,SE,131,0.0,3.0,95,0.09,,,0.74,,2013-02-22 07:22:00,
2013-02-22 02:32:00,36.0,35.0,30.26,East,98,0.0,3.0,96,0.08,,,0.76,,2013-02-22 07:32:00,
2013-02-22 02:42:00,36.0,35.0,30.26,East,98,0.0,3.0,96,0.08,,,0.76,,2013-02-22 07:42:00,
2013-02-22 02:51:00,36.0,35.0,30.25,East,98,0.0,0.0,95,0.06,,,0.77,,2013-02-22 07:51:00,
2013-02-22 03:01:00,36.0,35.0,30.25,East,98,0.0,0.0,96,0.06,,,0.79,,2013-02-22 08:01:00,
2013-02-22 03:11:00,36.0,35.0,30.25,East,98,0.0,0.0,96,0.06,,,0.79,,2013-02-22 08:11:00,
2013-02-22 03:21:00,36.0,35.0,30.25,East,98,0.0,1.0,96,0.06,,,0.80,,2013-02-22 08:21:00,
2013-02-22 03:32:00,36.0,35.0,30.23,East,98,0.0,0.0,96,0.06,,,0.82,,2013-02-22 08:32:00,
2013-02-22 03:42:00,36.0,35.0,30.23,East,98,0.0,0.0,96,0.06,,,0.82,,2013-02-22 08:42:00,
2013-02-22 03:52:00,36.0,35.0,30.23,East,86,0.0,1.0,96,0.06,,,0.84,,2013-02-22 08:52:00,
2013-02-22 04:03:00,36.0,35.0,30.23,WSW,248,2.0,4.0,96,0.07,,,0.86,,2013-02-22 09:03:00,
2013-02-22 04:11:00,36.0,35.0,30.22,East,95,0.0,2.0,96,0.09,,,0.89,,2013-02-22 09:11:00,
2013-02-22 04:22:00,36.0,35.0,30.22,East,95,0.0,2.0,96,0.09,,,0.89,,2013-02-22 09:22:00,
2013-02-22 04:32:00,36.0,35.0,30.22,NW,326,1.0,3.0,96,0.08,,,0.90,,2013-02-22 09:32:00,
2013-02-22 04:42:00,36.0,35.0,30.22,NW,326,1.0,3.0,96,0.08,,,0.90,,2013-02-22 09:42:00,
2013-02-22 04:51:00,36.0,35.0,30.22,NW,326,0.0,1.0,96,0.12,,,0.96,,2013-02-22 09:51:00,
2013-02-22 05:01:00,36.0,35.0,30.23,NW,326,0.0,0.0,96,0.12,,,0.98,,2013-02-22 10:01:00,
2013-02-22 05:11:00,36.0,35.0,30.23,NW,326,0.0,0.0,96,0.12,,,0.98,,2013-02-22 10:11:00,
2013-02-22 05:21:00,36.0,35.0,30.23,NNW,330,0.0,1.0,96,0.09,,,0.99,,2013-02-22 10:21:00,
2013-02-22 05:32:00,36.0,35.0,30.24,NNW,330,0.0,0.0,96,0.10,,,1.00,,2013-02-22 10:32:00,
2013-02-22 05:42:00,36.0,35.0,30.24,NNW,330,0.0,0.0,96,0.10,,,1.00,,2013-02-22 10:42:00,
2013-02-22 05:52:00,36.0,35.0,30.25,NE,56,0.0,2.0,96,0.04,,,1.00,,2013-02-22 10:52:00,
2013-02-22 06:01:00,36.0,35.0,30.25,NE,56,0.0,0.0,96,0.03,,,1.01,,2013-02-22 11:01:00,
2013-02-22 06:11:00,36.0,35.0,30.25,NE,56,0.0,0.0,96,0.03,,,1.01,,2013-02-22 11:11:00,
2013-02-22 06:22:00,36.0,35.0,30.27,NE,56,0.0,0.0,96,0.04,,,1.03,,2013-02-22 11:22:00,
2013-02-22 06:32:00,36.0,35.0,30.26,NE,56,0.0,2.0,96,0.04,,,1.04,,2013-02-22 11:32:00,
2013-02-22 06:42:00,36.0,35.0,30.26,NE,56,0.0,2.0,96,0.04,,,1.04,,2013-02-22 11:42:00,
2013-02-22 06:52:00,36.0,35.0,30.27,NE,56,0.0,1.0,96,0.04,,,1.04,,2013-02-22 11:52:00,
2013-02-22 07:02:00,36.0,35.0,30.27,ENE,61,0.0,2.0,96,0.03,,,1.04,,2013-02-22 12:02:00,
2013-02-22 07:11:00,36.0,35.0,30.27,ENE,61,0.0,2.0,96,0.03,,,1.04,,2013-02-22 12:11:00,
2013-02-22 07:22:00,36.0,35.0,30.26,ENE,62,0.0,2.0,96,0.01,,,1.04,,2013-02-22 12:22:00,
2013-02-22 07:32:00,35.0,34.0,30.26,East,92,1.0,5.0,96,0.00,,,1.04,,2013-02-22 12:32:00,
2013-02-22 07:42:00,35.0,34.0,30.26,East,92,1.0,5.0,96,0.00,,,1.04,,2013-02-22 12:42:00,
2013-02-22 07:52:00,35.0,34.0,30.25,NNE,25,0.0,4.0,95,0.00,,,1.04,,2013-02-22 12:52:00,
2013-02-22 08:02:00,34.0,33.0,30.24,ESE,104,0.0,1.0,95,0.00,,,1.04,,2013-02-22 13:02:00,
2013-02-22 08:11:00,34.0,33.0,30.24,ESE,104,0.0,1.0,95,0.00,,,1.04,,2013-02-22 13:11:00,
2013-02-22 08:22:00,34.0,33.0,30.25,East,98,0.0,3.0,95,0.00,,,1.04,,2013-02-22 13:22:00,
2013-02-22 08:32:00,34.0,33.0,30.25,East,98,0.0,0.0,96,0.00,,,1.04,,2013-02-22 13:32:00,
2013-02-22 08:42:00,34.0,33.0,30.25,East,98,0.0,0.0,96,0.00,,,1.04,,2013-02-22 13:42:00,
2013-02-22 08:52:00,34.0,33.0,30.26,East,98,0.0,0.0,96,0.00,,,1.04,,2013-02-22 13:52:00,
2013-02-22 09:01:00,35.0,34.0,30.27,East,98,0.0,0.0,96,0.00,,,1.04,,2013-02-22 14:01:00,
2013-02-22 09:11:00,35.0,34.0,30.27,East,98,0.0,0.0,96,0.00,,,1.04,,2013-02-22 14:11:00,
2013-02-22 09:21:00,35.0,34.0,30.27,East,98,0.0,0.0,96,0.00,,,1.04,,2013-02-22 14:21:00,
2013-02-22 09:32:00,35.0,34.0,30.27,East,98,0.0,0.0,96,0.00,,,1.04,,2013-02-22 14:32:00,
2013-02-22 09:42:00,35.0,34.0,30.27,East,98,0.0,0.0,96,0.00,,,1.04,,2013-02-22 14:42:00,
2013-02-22 09:52:00,35.0,34.0,30.27,East,98,0.0,0.0,96,0.00,,,1.04,,2013-02-22 14:52:00,
2013-02-22 10:02:00,35.0,34.0,30.27,East,98,0.0,0.0,96,0.00,,,1.04,,2013-02-22 15:02:00,
2013-02-22 10:11:00,35.0,34.0,30.27,East,98,0.0,0.0,96,0.00,,,1.04,,2013-02-22 15:11:00,
2013-02-22 10:22:00,36.0,35.0,30.26,East,98,0.0,0.0,96,0.00,,,1.04,,2013-02-22 15:22:00,
2013-02-22 10:32:00,36.0,35.0,30.26,East,98,0.0,1.0,96,0.00,,,1.04,,2013-02-22 15:32:00,
2013-02-22 10:42:00,36.0,35.0,30.26,East,98,0.0,1.0,96,0.00,,,1.04,,2013-02-22 15:42:00,
2013-02-22 10:52:00,36.0,35.0,30.26,East,98,0.0,0.0,96,0.00,,,1.04,,2013-02-22 15:52:00,
2013-02-22 11:02:00,36.0,35.0,30.25,East,98,0.0,0.0,96,0.00,,,1.04,,2013-02-22 16:02:00,
2013-02-22 11:12:00,36.0,35.0,30.25,East,98,0.0,0.0,96,0.00,,,1.04,,2013-02-22 16:12:00,
2013-02-22 11:22:00,37.0,36.0,30.24,East,98,0.0,0.0,96,0.00,,,1.04,,2013-02-22 16:22:00,
2013-02-22 11:32:00,37.0,36.0,30.25,East,98,0.0,1.0,96,0.00,,,1.04,,2013-02-22 16:32:00,
2013-02-22 11:42:00,37.0,36.0,30.25,East,98,0.0,1.0,96,0.00,,,1.04,,2013-02-22 16:42:00,
2013-02-22 11:52:00,37.0,36.0,30.24,East,98,0.0,1.0,96,0.00,,,1.04,,2013-02-22 16:52:00,
2013-02-22 12:01:00,37.0,36.0,30.25,East,98,0.0,1.0,96,0.00,,,1.04,,2013-02-22 17:01:00,
2013-02-22 12:11:00,37.0,36.0,30.25,East,98,0.0,1.0,96,0.00,,,1.04,,2013-02-22 17:11:00,
2013-02-22 12:22:00,38.0,37.0,30.24,East,98,0.0,0.0,96,0.00,,,1.04,,2013-02-22 17:22:00,
2013-02-22 12:32:00,38.0,37.0,30.24,East,98,0.0,1.0,96,0.00,,,1.04,,2013-02-22 17:32:00,
2013-02-22 12:42:00,38.0,37.0,30.24,East,98,0.0,1.0,96,0.00,,,1.04,,2013-02-22 17:42:00,
2013-02-22 12:52:00,38.0,37.0,30.24,East,98,0.0,0.0,96,0.00,,,1.04,,2013-02-22 17:52:00,
2013-02-22 13:02:00,38.0,37.0,30.24,East,98,0.0,0.0,95,0.00,,,1.04,,2013-02-22 18:02:00,
2013-02-22 13:12:00,39.0,38.0,30.23,East,98,0.0,0.0,96,0.00,,,1.04,,2013-02-22 18:12:00,
2013-02-22 13:22:00,39.0,38.0,30.23,East,98,0.0,0.0,96,0.00,,,1.04,,2013-02-22 18:22:00,
2013-02-22 13:32:00,39.0,38.0,30.23,East,98,0.0,0.0,96,0.00,,,1.04,,2013-02-22 18:32:00,
2013-02-22 13:42:00,39.0,38.0,30.23,East,98,0.0,0.0,96,0.00,,,1.04,,2013-02-22 18:42:00,
2013-02-22 13:52:00,39.0,38.0,30.23,East,98,0.0,1.0,96,0.00,,,1.04,,2013-02-22 18:52:00,
2013-02-22 14:01:00,40.0,39.0,30.22,East,98,0.0,0.0,96,0.00,,,1.04,,2013-02-22 19:01:00,
2013-02-22 14:11:00,40.0,39.0,30.22,East,98,0.0,1.0,96,0.00,,,1.04,,2013-02-22 19:11:00,
2013-02-22 14:21:00,40.0,39.0,30.22,East,98,0.0,1.0,96,0.00,,,1.04,,2013-02-22 19:21:00,
2013-02-22 14:31:00,40.0,39.0,30.22,East,98,0.0,1.0,96,0.00,,,1.04,,2013-02-22 19:31:00,
2013-02-22 14:41:00,40.0,39.0,30.22,East,98,0.0,1.0,96,0.00,,,1.04,,2013-02-22 19:41:00,
2013-02-22 14:52:00,41.0,40.0,30.21,East,98,0.0,1.0,95,0.00,,,1.04,,2013-02-22 19:52:00,
2013-02-22 15:01:00,41.0,40.0,30.20,East,98,0.0,1.0,95,0.00,,,1.04,,2013-02-22 20:01:00,
2013-02-22 15:11:00,41.0,40.0,30.20,East,98,0.0,1.0,95,0.00,,,1.04,,2013-02-22 20:11:00,
2013-02-22 15:21:00,41.0,40.0,30.20,East,98,0.0,1.0,95,0.00,,,1.04,,2013-02-22 20:21:00,
2013-02-22 15:32:00,41.0,39.0,30.19,East,98,0.0,0.0,94,0.00,,,1.04,,2013-02-22 20:32:00,
2013-02-22 15:42:00,41.0,39.0,30.19,East,98,0.0,0.0,94,0.00,,,1.04,,2013-02-22 20:42:00,
2013-02-22 15:52:00,41.0,40.0,30.19,East,98,0.0,1.0,95,0.00,,,1.04,,2013-02-22 20:52:00,
2013-02-22 16:02:00,41.0,40.0,30.19,East,98,0.0,1.0,95,0.00,,,1.04,,2013-02-22 21:02:00,
2013-02-22 16:11:00,41.0,40.0,30.19,East,98,0.0,1.0,95,0.00,,,1.04,,2013-02-22 21:11:00,
2013-02-22 16:21:00,41.0,40.0,30.19,East,98,0.0,0.0,96,0.00,,,1.04,,2013-02-22 21:21:00,
2013-02-22 16:32:00,42.0,41.0,30.18,East,98,0.0,0.0,96,0.00,,,1.04,,2013-02-22 21:32:00,
2013-02-22 16:42:00,42.0,41.0,30.18,East,98,0.0,0.0,96,0.00,,,1.04,,2013-02-22 21:42:00,
2013-02-22 16:52:00,42.0,41.0,30.19,East,98,0.0,0.0,96,0.00,,,1.04,,2013-02-22 21:52:00,
2013-02-22 17:01:00,42.0,41.0,30.18,East,98,0.0,0.0,96,0.00,,,1.04,,2013-02-22 22:01:00,
2013-02-22 17:11:00,42.0,41.0,30.18,East,98,0.0,0.0,96,0.00,,,1.04,,2013-02-22 22:11:00,
2013-02-22 17:21:00,42.0,41.0,30.18,East,98,0.0,1.0,96,0.00,,,1.04,,2013-02-22 22:21:00,
2013-02-22 17:32:00,42.0,41.0,30.18,East,98,0.0,1.0,96,0.00,,,1.04,,2013-02-22 22:32:00,
2013-02-22 17:42:00,42.0,41.0,30.18,East,98,0.0,1.0,96,0.00,,,1.04,,2013-02-22 22:42:00,
2013-02-22 17:51:00,42.0,41.0,30.17,East,99,0.0,2.0,96,0.00,,,1.04,,2013-02-22 22:51:00,
2013-02-22 18:01:00,42.0,41.0,30.17,SSW,198,0.0,2.0,96,0.00,,,1.04,,2013-02-22 23:01:00,
2013-02-22 18:11:00,42.0,41.0,30.17,SSW,198,0.0,2.0,96,0.00,,,1.04,,2013-02-22 23:11:00,
2013-02-22 18:21:00,42.0,41.0,30.17,SSW,198,0.0,1.0,96,0.00,,,1.04,,2013-02-22 23:21:00,
2013-02-22 18:32:00,42.0,41.0,30.17,SSW,198,0.0,0.0,96,0.00,,,1.04,,2013-02-22 23:32:00,
2013-02-22 18:42:00,42.0,41.0,30.17,SSW,198,0.0,0.0,96,0.00,,,1.04,,2013-02-22 23:42:00,
2013-02-22 18:52:00,42.0,41.0,30.18,SSW,198,0.0,0.0,96,0.00,,,1.04,,2013-02-22 23:52:00,
2013-02-22 19:02:00,42.0,41.0,30.18,SSW,198,0.0,0.0,96,0.00,,,1.04,,2013-02-23 00:02:00,
2013-02-22 19:11:00,42.0,41.0,30.18,SSW,198,0.0,0.0,96,0.00,,,1.04,,2013-02-23 00:11:00,
2013-02-22 19:21:00,42.0,41.0,30.19,SSW,198,0.0,0.0,96,0.00,,,1.04,,2013-02-23 00:21:00,
2013-02-22 19:32:00,42.0,41.0,30.19,SSW,198,0.0,0.0,96,0.00,,,1.04,,2013-02-23 00:32:00,
2013-02-22 19:42:00,42.0,41.0,30.19,SSW,198,0.0,0.0,96,0.00,,,1.04,,2013-02-23 00:42:00,
2013-02-22 19:51:00,42.0,41.0,30.19,SSW,198,0.0,0.0,96,0.00,,,1.04,,2013-02-23 00:51:00,
2013-02-22 20:01:00,42.0,41.0,30.19,SSW,198,0.0,0.0,96,0.00,,,1.04,,2013-02-23 01:01:00,
2013-02-22 20:11:00,42.0,41.0,30.19,SSW,198,0.0,0.0,96,0.00,,,1.04,,2013-02-23 01:11:00,
2013-02-22 20:21:00,42.0,41.0,30.21,SSW,198,0.0,0.0,96,0.00,,,1.04,,2013-02-23 01:21:00,
2013-02-22 20:32:00,42.0,41.0,30.20,SSW,198,0.0,0.0,96,0.00,,,1.04,,2013-02-23 01:32:00,
2013-02-22 20:42:00,42.0,41.0,30.20,SSW,198,0.0,0.0,96,0.00,,,1.04,,2013-02-23 01:42:00,
2013-02-22 20:51:00,41.0,40.0,30.20,SSW,198,0.0,0.0,96,0.00,,,1.04,,2013-02-23 01:51:00,
2013-02-22 21:01:00,41.0,40.0,30.20,SSW,198,0.0,2.0,96,0.00,,,1.04,,2013-02-23 02:01:00,
2013-02-22 21:11:00,41.0,40.0,30.21,SSW,198,0.0,0.0,97,0.00,,,1.04,,2013-02-23 02:11:00,
2013-02-22 21:21:00,41.0,40.0,30.21,SSW,198,0.0,0.0,97,0.00,,,1.04,,2013-02-23 02:21:00,
2013-02-22 21:32:00,41.0,40.0,30.20,SSW,198,0.0,0.0,97,0.00,,,1.00,,2013-02-23 02:32:00,
2013-02-22 21:42:00,41.0,40.0,30.20,SSW,198,0.0,0.0,97,0.00,,,1.00,,2013-02-23 02:42:00,
2013-02-22 21:52:00,41.0,40.0,30.18,SSW,198,0.0,0.0,97,0.00,,,1.00,,2013-02-23 02:52:00,
2013-02-22 22:02:00,41.0,40.0,30.18,SSW,198,0.0,0.0,97,0.00,,,1.00,,2013-02-23 03:02:00,
2013-02-22 22:11:00,41.0,40.0,30.18,SSW,198,0.0,0.0,97,0.00,,,1.00,,2013-02-23 03:11:00,
2013-02-22 22:21:00,41.0,40.0,30.19,SSW,198,0.0,2.0,97,0.00,,,1.00,,2013-02-23 03:21:00,
2013-02-22 22:32:00,41.0,40.0,30.18,SSW,198,0.0,0.0,97,0.00,,,0.95,,2013-02-23 03:32:00,
2013-02-22 22:42:00,41.0,40.0,30.18,SSW,198,0.0,0.0,97,0.00,,,0.95,,2013-02-23 03:42:00,
2013-02-22 22:52:00,41.0,40.0,30.18,SSW,198,0.0,2.0,97,0.00,,,0.95,,2013-02-23 03:52:00,
2013-02-22 23:01:00,41.0,40.0,30.18,West,279,1.0,3.0,97,0.00,,,0.95,,2013-02-23 04:01:00,
2013-02-22 23:11:00,41.0,40.0,30.19,ESE,105,1.0,4.0,97,0.00,,,0.95,,2013-02-23 04:11:00,
2013-02-22 23:21:00,41.0,40.0,30.19,ESE,105,1.0,4.0,97,0.00,,,0.95,,2013-02-23 04:21:00,
2013-02-22 23:32:00,41.0,40.0,30.20,ESE,105,0.0,2.0,97,0.00,,,0.72,,2013-02-23 04:32:00,
2013-02-22 23:42:00,41.0,40.0,30.20,ESE,105,0.0,2.0,97,0.00,,,0.72,,2013-02-23 04:42:00,
2013-02-22 23:51:00,41.0,40.0,30.19,WSW,240,1.0,4.0,97,0.00,,,0.72,,2013-02-23 04:51:00,